Time,TemperatureF,DewpointF,PressureIn,WindDirection,WindDirectionDegrees,WindSpeedMPH,WindSpeedGustMPH,Humidity,HourlyPrecipIn,Conditions,Clouds,dailyrainin,SoftwareType,DateUTC
2013-03-03 00:22:00,12.0,-99.9,-100.00,NNE,14,0.0,0.0,-999,-99.99,,,-99.99,,2013-03-03 09:22:00,
2013-03-03 02:22:00,9.0,-99.9,-100.00,ESE,107,0.0,0.0,-999,-99.99,,,-99.99,,2013-03-03 11:22:00,
2013-03-03 04:22:00,7.0,-99.9,-100.00,ESE,107,0.0,0.0,-999,-99.99,,,-99.99,,2013-03-03 13:22:00,
2013-03-03 05:22:00,6.0,-99.9,-100.00,East,97,0.0,0.0,-999,-99.99,,,-99.99,,2013-03-03 14:22:00,
2013-03-03 06:22:00,6.0,-99.9,-100.00,NNE,22,0.0,0.0,-999,-99.99,,,-99.99,,2013-03-03 15:22:00,
2013-03-03 08:12:00,6.0,-99.9,-100.00,South,177,0.0,3.0,-999,-99.99,,,-99.99,,2013-03-03 17:12:00,
2013-03-03 09:22:00,8.0,-99.9,-100.00,South,177,0.0,0.0,-999,-99.99,,,-99.99,,2013-03-03 18:22:00,
2013-03-03 10:11:00,14.0,-99.9,-100.00,WNW,297,0.0,0.0,-999,-99.99,,,-99.99,,2013-03-03 19:11:00,
2013-03-03 10:22:00,14.0,-99.9,-100.00,WNW,297,0.0,0.0,-999,-99.99,,,-99.99,,2013-03-03 19:22:00,
2013-03-03 10:32:00,14.0,-99.9,-100.00,WNW,297,0.0,0.0,-999,-99.99,,,-99.99,,2013-03-03 19:32:00,
2013-03-03 10:42:00,14.0,-99.9,-100.00,WNW,297,0.0,0.0,-999,-99.99,,,-99.99,,2013-03-03 19:42:00,
2013-03-03 10:52:00,14.0,-99.9,-100.00,WNW,297,0.0,0.0,-999,-99.99,,,-99.99,,2013-03-03 19:52:00,
2013-03-03 11:22:00,21.0,-99.9,-100.00,North,8,0.0,0.0,-999,-99.99,,,-99.99,,2013-03-03 20:22:00,
2013-03-03 11:32:00,21.0,-99.9,-100.00,North,8,0.0,0.0,-999,-99.99,,,-99.99,,2013-03-03 20:32:00,
2013-03-03 11:43:00,21.0,-99.9,-100.00,North,8,0.0,0.0,-999,-99.99,,,-99.99,,2013-03-03 20:43:00,
2013-03-03 11:53:00,21.0,-99.9,-100.00,North,8,0.0,0.0,-999,-99.99,,,-99.99,,2013-03-03 20:53:00,
2013-03-03 12:22:00,22.0,-99.9,-100.00,NNE,24,0.0,0.0,-999,-99.99,,,-99.99,,2013-03-03 21:22:00,
2013-03-03 12:32:00,22.0,-99.9,-100.00,NNE,24,0.0,0.0,-999,-99.99,,,-99.99,,2013-03-03 21:32:00,
2013-03-03 12:42:00,22.0,-99.9,-100.00,NNE,24,0.0,0.0,-999,-99.99,,,-99.99,,2013-03-03 21:42:00,
2013-03-03 12:52:00,22.0,-99.9,-100.00,NNE,24,0.0,0.0,-999,-99.99,,,-99.99,,2013-03-03 21:52:00,
2013-03-03 13:22:00,26.0,-99.9,-100.00,NNE,22,2.0,7.0,-999,-99.99,,,-99.99,,2013-03-03 22:22:00,
2013-03-03 13:32:00,26.0,-99.9,-100.00,NNE,22,2.0,7.0,-999,-99.99,,,-99.99,,2013-03-03 22:32:00,
2013-03-03 13:42:00,26.0,-99.9,-100.00,NNE,22,2.0,7.0,-999,-99.99,,,-99.99,,2013-03-03 22:42:00,
2013-03-03 13:53:00,26.0,-99.9,-100.00,NNE,22,2.0,7.0,-999,-99.99,,,-99.99,,2013-03-03 22:53:00,
2013-03-03 14:22:00,29.0,-99.9,-100.00,NNW,327,4.0,6.0,-999,-99.99,,,-99.99,,2013-03-03 23:22:00,
2013-03-03 14:32:00,29.0,-99.9,-100.00,NNW,327,4.0,6.0,-999,-99.99,,,-99.99,,2013-03-03 23:32:00,
2013-03-03 14:42:00,29.0,-99.9,-100.00,NNW,327,4.0,6.0,-999,-99.99,,,-99.99,,2013-03-03 23:42:00,
2013-03-03 14:52:00,29.0,-99.9,-100.00,NNW,327,4.0,6.0,-999,-99.99,,,-99.99,,2013-03-03 23:52:00,
2013-03-03 15:22:00,31.0,-99.9,-100.00,NNE,19,0.0,5.0,-999,-99.99,,,-99.99,,2013-03-04 00:22:00,
2013-03-03 15:32:00,31.0,-99.9,-100.00,NNE,19,0.0,5.0,-999,-99.99,,,-99.99,,2013-03-04 00:32:00,
2013-03-03 15:42:00,31.0,-99.9,-100.00,NNE,19,0.0,5.0,-999,-99.99,,,-99.99,,2013-03-04 00:42:00,
2013-03-03 15:52:00,31.0,-99.9,-100.00,NNE,19,0.0,5.0,-999,-99.99,,,-99.99,,2013-03-04 00:52:00,
2013-03-03 16:22:00,31.0,-99.9,-100.00,NE,43,0.0,4.0,-999,-99.99,,,-99.99,,2013-03-04 01:22:00,
2013-03-03 16:32:00,31.0,-99.9,-100.00,NE,43,0.0,4.0,-999,-99.99,,,-99.99,,2013-03-04 01:32:00,
2013-03-03 16:42:00,31.0,-99.9,-100.00,NE,43,0.0,4.0,-999,-99.99,,,-99.99,,2013-03-04 01:42:00,
2013-03-03 16:52:00,31.0,-99.9,-100.00,NE,43,0.0,4.0,-999,-99.99,,,-99.99,,2013-03-04 01:52:00,
2013-03-03 17:22:00,30.0,-99.9,-100.00,NNW,331,0.0,0.0,-999,-99.99,,,-99.99,,2013-03-04 02:22:00,
2013-03-03 17:32:00,30.0,-99.9,-100.00,NNW,331,0.0,0.0,-999,-99.99,,,-99.99,,2013-03-04 02:32:00,
2013-03-03 17:42:00,30.0,-99.9,-100.00,NNW,331,0.0,0.0,-999,-99.99,,,-99.99,,2013-03-04 02:42:00,
2013-03-03 17:53:00,30.0,-99.9,-100.00,NNW,331,0.0,0.0,-999,-99.99,,,-99.99,,2013-03-04 02:53:00,
2013-03-03 18:22:00,28.0,-99.9,-100.00,NNW,331,0.0,0.0,-999,-99.99,,,-99.99,,2013-03-04 03:22:00,
2013-03-03 18:32:00,28.0,-99.9,-100.00,NNW,331,0.0,0.0,-999,-99.99,,,-99.99,,2013-03-04 03:32:00,
2013-03-03 18:42:00,28.0,-99.9,-100.00,NNW,331,0.0,0.0,-999,-99.99,,,-99.99,,2013-03-04 03:42:00,
2013-03-03 18:53:00,28.0,-99.9,-100.00,NNW,331,0.0,0.0,-999,-99.99,,,-99.99,,2013-03-04 03:53:00,
2013-03-03 19:22:00,26.0,-99.9,-100.00,NNW,331,0.0,0.0,-999,-99.99,,,-99.99,,2013-03-04 04:22:00,
2013-03-03 19:32:00,26.0,-99.9,-100.00,NNW,331,0.0,0.0,-999,-99.99,,,-99.99,,2013-03-04 04:32:00,
2013-03-03 19:42:00,26.0,-99.9,-100.00,NNW,331,0.0,0.0,-999,-99.99,,,-99.99,,2013-03-04 04:42:00,
2013-03-03 19:52:00,26.0,-99.9,-100.00,NNW,331,0.0,0.0,-999,-99.99,,,-99.99,,2013-03-04 04:52:00,
2013-03-03 20:22:00,23.0,-99.9,-100.00,NNW,331,0.0,0.0,-999,-99.99,,,-99.99,,2013-03-04 05:22:00,
2013-03-03 20:32:00,23.0,-99.9,-100.00,NNW,331,0.0,0.0,-999,-99.99,,,-99.99,,2013-03-04 05:32:00,
2013-03-03 20:43:00,23.0,-99.9,-100.00,NNW,331,0.0,0.0,-999,-99.99,,,-99.99,,2013-03-04 05:43:00,
2013-03-03 20:52:00,23.0,-99.9,-100.00,NNW,331,0.0,0.0,-999,-99.99,,,-99.99,,2013-03-04 05:52:00,
2013-03-03 21:22:00,21.0,-99.9,-100.00,NNW,331,0.0,0.0,-999,-99.99,,,-99.99,,2013-03-04 06:22:00,
2013-03-03 21:32:00,21.0,-99.9,-100.00,NNW,331,0.0,0.0,-999,-99.99,,,-99.99,,2013-03-04 06:32:00,
2013-03-03 21:42:00,21.0,-99.9,-100.00,NNW,331,0.0,0.0,-999,-99.99,,,-99.99,,2013-03-04 06:42:00,
2013-03-03 21:52:00,21.0,-99.9,-100.00,NNW,331,0.0,0.0,-999,-99.99,,,-99.99,,2013-03-04 06:52:00,
2013-03-03 22:22:00,18.0,-99.9,-100.00,NNW,331,0.0,0.0,-999,-99.99,,,-99.99,,2013-03-04 07:22:00,
2013-03-03 23:12:00,17.0,-99.9,-100.00,NNW,331,0.0,0.0,-999,-99.99,,,-99.99,,2013-03-04 08:12:00,
2013-03-03 23:22:00,17.0,-99.9,-100.00,NNW,331,0.0,0.0,-999,-99.99,,,-99.99,,2013-03-04 08:22:00,